カタログに戻る

STARLINK-30157

運用中通信VLEO
NORAD 57512·PAYLOAD·🇺🇸 United States

打ち上げ Aug 7, 2023 から Cape Canaveral Space Force Station

Loading…

次のパス (今後24時間)

TLE

最新Source: CelesTrak SupGP

元期: Sep 14, 2026, 21:47 UTC

1 57512C 23113T   26257.90812500 -.00078730  00000+0 -28505-2 0  2572
2 57512  43.0026   1.6716 0001752 269.2698 132.3438 15.27630213    10

AllMySatでSTARLINK-30157をリアルタイム追跡

Download on the App Store